Regional Weather Roundup
Issued by NWS

Home | Current Version | Previous Version | Text Only | Print | Product List | Glossary Off
Versions: 1 2 3 4 5 6 7 8 9 10 11 12 13 14 15 16 17 18 19 20 21 22 23 24 25 26 27 28 29 30 31 32 33 34 35 36 37 38 39 40 41 42 43 44 45 46 47 48 49 50

016
ASUS43 KMKX 282221
RWRWI

WISCONSIN REGIONAL WEATHER ROUNDUP
NATIONAL WEATHER SERVICE MILWAUKEE/SULLIVAN WI
500 PM CDT SAT MAY 28 2016

NOTE: "FAIR" INDICATES FEW OR NO CLOUDS BELOW 12,000 FEET WITH NO
SIGNIFICANT WEATHER AND/OR OBSTRUCTIONS TO VISIBILITY.

WIZ001-002-006>008-014>016-023>028-282300-
NORTHWEST WISCONSIN

CITY           SKY/WX    TMP DP  RH WIND       PRES   REMARKS
SUPERIOR ARPT  CLOUDY    53  50  87 NE6       29.81S
ASHLAND        CLOUDY    60  54  80 NE7       29.79R
HAYWARD        CLOUDY    70  61  73 VRB5      29.78R
SIREN          RAIN      65  59  80 NW5       29.79R
CUMBERLAND     DRIZZLE   64  61  88 CALM      29.78S
RICE LAKE      CLOUDY    68  62  79 CALM      29.78S
CHETEK         CLOUDY    72  63  74 S6        29.77S
LADYSMITH      CLOUDY    73  62  68 SW6       29.79S
EAU CLAIRE     SUNNY     77  63  61 SW9       29.74F
MENOMONIE      MOSUNNY   76  72  86 S13G18    29.74F
NEW RICHMOND   CLOUDY    64  63  96 N9        29.78R
OSCEOLA        LGT RAIN  64  64 100 N6        29.80S
$$

WIZ003>005-009-010-017-018-282300-
NORTH CENTRAL WISCONSIN

CITY           SKY/WX    TMP DP  RH WIND       PRES   REMARKS
MANITOWISH WTR NOT AVBL
ARBOR VITAE    RAIN      65  64  94 W7        29.80R
WOODRUFF       RAIN      65  64  94 W7        29.80R
RHINELANDER    CLOUDY    73  64  73 SW13      29.81R
EAGLE RIVER    LGT RAIN  67  64  87 SW17G26   29.79R
LAND O LAKES   LGT RAIN  70  65  85 SW8G17    29.78R
PHILLIPS       CLOUDY    67  65  96 S3        29.79S
TOMAHAWK       PTSUNNY   70  63  80 SW5       29.81R
MEDFORD        CLOUDY    72  64  77 SW8       29.80R
MERRILL        MOSUNNY   77  65  67 SW10G17   29.80R
$$

WIZ029-030-035-036-043>047-282300-
CENTRAL WISCONSIN

CITY           SKY/WX    TMP DP  RH WIND       PRES   REMARKS
WAUSAU         PTSUNNY   80  60  50 S13G20    29.78R HX  81
MOSINEE        NOT AVBL
MARSHFIELD     MOSUNNY   79  60  52 S12       29.78S HX  80
STEVENS POINT  MOSUNNY   78  59  51 SW14      29.80F
WAUPACA        MOSUNNY   82  62  50 S10       29.80R HX  83
WAUTOMA        SUNNY     82  63  52 SW14      29.79S HX  83
WISC RAPIDS    SUNNY     79  58  48 SW15G22   29.80S HX  80
CAMP DOUGLAS   SUNNY     77  69  75 SW8       29.77F
$$

WIZ011>013-019>022-031-037>040-048>050-282300-
NORTHEAST WISCONSIN

CITY           SKY/WX    TMP DP  RH WIND       PRES   REMARKS
ANTIGO         MOSUNNY   75  62  63 SW15G25   29.81R
SHAWANO        PTSUNNY   82  63  51 SW10      29.80R HX  83
OCONTO         CLOUDY    76  67  74 SE9       29.79S
STURGEON BAY   NOT AVBL
GREEN BAY      SUNNY     81  64  56 SW14G25   29.80S HX  82
MANITOWOC      SUNNY     70  60  70 S28G37    29.85S
APPLETON       PTSUNNY   81  59  47 S20       29.80S HX  81
CLINTONVILLE   PTSUNNY   81  59  47 SW16      29.79S HX  81
OSHKOSH        MOSUNNY   81  61  50 SW15G26   29.81S HX  82
$$

WIZ032>034-041-042-053>061-282300-
SOUTHWEST WISCONSIN

CITY           SKY/WX    TMP DP  RH WIND       PRES   REMARKS
LA CROSSE      PTSUNNY   78  61  55 S9        29.75S HX  80
SPARTA         CLOUDY    77  61  57 S7        29.77F
VIROQUA        PTSUNNY   74  62  64 S7        29.79R
BOSCOBEL       LGT RAIN  76  66  71 S8        29.78R
PRAIRIE DU CHI CLOUDY    73  62  66 S3        29.78R
PLATTEVILLE    CLOUDY    65  63  94 N6        29.82F
$$

WIZ056-057-062-063-064-067-068-282300-
SOUTH CENTRAL WISCONSIN

CITY           SKY/WX    TMP DP  RH WIND       PRES   REMARKS
REEDSBURG      MOSUNNY   80  63  56 S12G17    29.78F HX  81
BARABOO/DELLS  MOSUNNY   80  59  47 S15G21    29.79F HX  81
LONE ROCK      LGT RAIN  79  63  57 S12       29.78F HX  80
MINERAL POINT  PTSUNNY   77  61  57 S22G36    29.79F
MADISON        PTSUNNY   82  62  50 S15       29.79F HX  83
MIDDLETON      MOSUNNY   83  63  49 S14       29.80F HX  84
WATERTOWN      MOSUNNY   82  64  54 S15       29.82F HX  84
MONROE         SUNNY     81  59  47 S22G30    29.80F HX  81
JANESVILLE     PTSUNNY   82  61  47 S16       29.83S HX  83
$$

WIZ051-052-058>065-066-070>072-282300-
SOUTHEAST WISCONSIN

CITY           SKY/WX    TMP DP  RH WIND       PRES   REMARKS
MILWAUKEE      MOSUNNY   81  64  56 S20G28    29.86S HX  82
WAUKESHA       MOSUNNY   79  63  57 S16G24    29.86F HX  80
MILWAUKEE/TIMM MOSUNNY   81  59  47 S15G22    29.86S HX  81
RACINE         MOSUNNY   74  60  61 S15       29.89S
BURLINGTON     MOSUNNY   82  60  46 S13G21    29.86S HX  82
KENOSHA        MOSUNNY   81  64  56 S14G23    29.87S HX  82
FOND DU LAC    MOSUNNY   81  64  56 S15       29.81F HX  82
SHEBOYGAN      SUNNY     76  64  66 S18G26    29.84S
WEST BEND      MOSUNNY   81  63  54 S12       29.84S HX  82
JUNEAU         MOSUNNY   80  63  57 S17G24    29.84S HX  81
$$

LSZ147-162-282300-
LAKE SUPERIOR

STATION/POSITION TIME  TEMP    WIND        PRES    WAVE
                       AIR SEA DIR/SP/G            HT/PER
                 (UTC) (F)     (DEG/KT/KT) (MB)    (FT/S)
W MID LAKE BUOY  2150   41 38  350/  4/  6 1008.7F   1/ 3
DEVILS ISLAND    2200   45     320/  6/  7 1009.5R
SAXON HARBOR     2100   51     360/  2/  4 1008.1R
$$

LMZ867-665-643>646-282300-
LAKE MICHIGAN

STATION/POSITION TIME  TEMP    WIND        PRES    WAVE
                       AIR SEA DIR/SP/G            HT/PER
                 (UTC) (F)     (DEG/KT/KT) (MB)    (FT/S)
CHAMBERS ISLAND  2100   72     140/  7/ 16 1009.8
N MID LAKE BUOY  2150   54 46  190/ 16/ 17 1010.7S   4/ 5
NORTHPORT PIER   2100   66     160/ 10/ 19 1010.5S
SISTER BAY       2105   70     190/ 25/ 31   N/A
ALGOMA LAKESHORE 2117          220/  9/ 11   N/A
KEWAUNEE LAKESHO 2100   55     180/ 13/ 15 1010.3F
SHEBOYGAN LAKESH 2200   59     180/ 19/ 20 1011.0F
PORT WASHINGTON  2100   64     200/  7/ 12 1011.9
S MID LAKE BUOY  2150   58 50  160/ 10/ 12 1012.5F   1/ 4
KENOSHA   LAKESH 2200   60     170/ 14/ 16 1011.5S
$$

TC  - TEMPERATURE IN CELSIUS
VSB - VISIBILITY IN STATUTE MILES
WCI - WIND CHILL INDEX
HX  - HEAT INDEX





USA.gov is the U.S. government's official web portal to all federal, state and local government web resources and services.